Luxor, Egypt

10:56 AM EET on March 26, 2017 (GMT +0200)
Luxor International

Weather History for HELX - October, 2012

Change the Weather History Date:

Tuesday, October 30, 2012

  Actual Average Record
Temperature  
Mean Temperature 78 °F -  
Max Temperature 93 °F 81 °F 95 °F (2007)
Min Temperature 64 °F 54 °F 53 °F (1996)
Cooling Degree Days 14    
Growing Degree Days 28 (Base 50)    
Moisture  
Dew Point 50 °F    
Average Humidity 36    
Maximum Humidity 49    
Minimum Humidity 20    
Precipitation  
Precipitation 0.00 in 0.00 in - ()
Sea Level Pressure  
Sea Level Pressure 29.83 in    
Wind  
Wind Speed 1 mph ()    
Max Wind Speed 2 mph    
Max Gust Speed -    
Visibility 6.0 miles    
Events      
Averages and records for this station are not official NWS values.
T = Trace of Precipitation, MM = Missing Value Source: Averaged Metar Reports

Daily Weather History Graph

Daily Weather History Graph

Search for Another Location

Airport or City:

Trip Planner

Search our weather history database for the weather conditions in past years. The results will help you decide how hot, cold, wet, or windy it might be!

Date:

Astronomy

Oct. 30, 2012 Rise Set
Actual Time 5:56 AM EET 5:09 PM EET
Civil Twilight 5:32 AM EET 5:32 PM EET
Nautical Twilight 5:05 AM EET 5:59 PM EET
Astronomical Twilight 4:38 AM EET 6:26 PM EET
Moon 5:32 PM EET (10/30) 6:18 AM EET (10/30)
Length of Visible Light 11h 59m
Length of Day
11h 12m
Full, 100% of the Moon is Illuminated
Oct 30
Full
Nov 7
Last Quarter
Nov 14
New
Nov 20
First Quarter
Nov 28
Full

Hourly Weather History & Observations

Time (EET) Temp. Heat Index Dew Point Humidity Pressure Visibility Wind Dir Wind Speed Gust Speed Precip Events Conditions
12:00 AM 71.6 °F - 46.4 °F 41% 29.83 in - Calm Calm - N/A   Clear
1:00 AM 68.0 °F - 46.4 °F 46% 29.83 in - Calm Calm - N/A   Clear
2:00 AM 68 °F - 48 °F 37% 29.84 in 6 mi Calm Calm - -  
2:00 AM 68.0 °F - 48.2 °F 49% 29.83 in - Calm Calm - N/A   Clear
3:00 AM 68.0 °F - 44.6 °F 43% 29.83 in - Calm Calm - N/A   Clear
4:00 AM 66.2 °F - 44.6 °F 46% 29.83 in - Calm Calm - N/A   Clear
5:00 AM 64.4 °F - 42.8 °F 45% 29.83 in - Calm Calm - N/A   Clear
6:00 AM 66.2 °F - 42.8 °F 43% 29.83 in - Calm Calm - N/A   Clear
7:00 AM 68.0 °F - 44.6 °F 43% 29.86 in - Calm Calm - N/A   Clear
8:00 AM 74 °F - 47 °F 27% 29.87 in 6 mi Calm Calm - -  
8:00 AM 73.4 °F - 46.4 °F 38% 29.86 in - Calm Calm - N/A   Clear
9:00 AM 80.6 °F - 50.0 °F 34% 29.89 in - Calm Calm - N/A   Clear
10:00 AM 84.2 °F 82.8 °F 53.6 °F 35% 29.89 in - NNW 2.3 mph - N/A   Clear
11:00 AM 87.8 °F 85.7 °F 53.6 °F 31% 29.86 in - Calm Calm - N/A   Clear
12:00 PM 89.6 °F - 51.8 °F 27% 29.83 in - NE 2.3 mph - N/A   Clear
1:00 PM 91.4 °F 89.1 °F 53.6 °F 28% 29.80 in - NW 2.3 mph - N/A   Clear
2:00 PM 92 °F - 55 °F 20% 29.79 in 6 mi Calm Calm - -  
2:00 PM 93.2 °F 91.3 °F 55.4 °F 28% 29.80 in - Calm Calm - N/A   Clear
3:00 PM 93.2 °F 91.3 °F 55.4 °F 28% 29.77 in - NNE 2.3 mph - N/A   Clear
4:00 PM 93.2 °F 91.9 °F 57.2 °F 30% 29.77 in - Calm Calm - N/A   Clear
5:00 PM 89.6 °F 87.7 °F 55.4 °F 31% 29.77 in - North 2.3 mph - N/A   Clear
6:00 PM 84.2 °F 83.5 °F 57.2 °F 40% 29.80 in - NNW 2.3 mph - N/A   Clear
7:00 PM 80.6 °F 81.1 °F 59.0 °F 48% 29.80 in - Calm Calm - N/A   Clear
8:00 PM 80 °F - 54 °F 29% 29.82 in 6 mi SSE 2.3 mph - -  
8:00 PM 80.6 °F 80.3 °F 53.6 °F 39% 29.83 in - SSE 2.3 mph - N/A   Clear
9:00 PM 78.8 °F - 50.0 °F 36% 29.83 in - South 2.3 mph - N/A   Clear
10:00 PM 77.0 °F - 48.2 °F 36% 29.83 in - SSE 2.3 mph - N/A   Clear
11:00 PM 75.2 °F - 46.4 °F 36% 29.83 in - SE 1.2 mph - N/A   Clear